Location: Newark
(27.9675°N, 86.8869°E)
Time: 12:18:11
(UTC+00:00)

Vanguard 3 - Pass Details

Date: 27 October 2019
Orbit: 508 x 3263 km, 33.4° (Epoch: 18 November)

Event Time Altitude Azimuth Distance (km) Brightness Sun altitude
Rises 21:36:16 0° 276° (W) 2,675 - -36.8°
Reaches altitude 10° 21:38:30 10° 261° (W) 1,902 - -36.3°
Maximum altitude 21:42:00 25° 204° (SSW) 1,410 - -35.5°
Exits shadow 21:45:20 15° 159° (SSE) 2,170 9.4 -34.8°
Drops below altitude 10° 21:46:48 10° 151° (SSE) 2,670 10.0 -34.5°
Sets 21:50:37 0° 139° (SE) 4,072 11.2 -33.6°
